QPF
0.00 0.00 0.00 0.00 0.00 0.01 0.01 0.01 0.02 0.04 0.05 0.02 0.01 0.00 0.00 0.00 0.00 0.00 0.00 0.00 0.02 0.03 0.08 0.10 0.07 0.06 0.06 0.05 0.03 0.01 0.01 0.01 0.01 0.02 0.04 0.07 0.11 0.12 0.09 0.03 0.01 0.01 0.01
0.00 0.00 0.00 0.00 0.00 0.00 0.00 0.01 0.03 0.05 0.05 0.05 0.03 0.01 0.00 0.00 0.00 0.00 0.00 0.00 0.01 0.02 0.03 0.04 0.05 0.05 0.05 0.05 0.04 0.02 0.01 0.01 0.01 0.01 0.02 0.04 0.08 0.09 0.08 0.04 0.01 0.01 0.02
0.00 0.00 0.00 0.00 0.00 0.00 0.00 0.01 0.03 0.04 0.06 0.10 0.06 0.02 0.01 0.00 0.00 0.00 0.00 0.00 0.00 0.00 0.02 0.03 0.02 0.03 0.04 0.05 0.04 0.03 0.01 0.01 0.01 0.01 0.01 0.02 0.06 0.08 0.07 0.04 0.02 0.01 0.02
0.00 0.00 0.01 0.00 0.01 0.01 0.01 0.01 0.04 0.06 0.08 0.08 0.03 0.01 0.01 0.00 0.00 0.00 0.00 0.00 0.00 0.00 0.01 0.02 0.01 0.02 0.03 0.04 0.04 0.02 0.01 0.01 0.01 0.01 0.01 0.02 0.06 0.10 0.08 0.05 0.02 0.01 0.01
0.01 0.01 0.01 0.01 0.00 0.01 0.00 0.01 0.01 0.02 0.02 0.03 0.02 0.01 0.00 0.00 0.00 0.00 0.00 0.00 0.00 0.00 0.00 0.00 0.01 0.01 0.03 0.04 0.03 0.02 0.02 0.02 0.02 0.03 0.02 0.03 0.06 0.10 0.08 0.05 0.04 0.02 0.02
0.02 0.01 0.00 0.01 0.01 0.00 0.00 0.00 0.00 0.01 0.01 0.01 0.02 0.00 0.00 0.00 0.00 0.00 0.00 0.00 0.00 0.01 0.00 0.00 0.00 0.00 0.01 0.01 0.02 0.03 0.03 0.03 0.04 0.03 0.02 0.02 0.05 0.08 0.07 0.06 0.04 0.02 0.03
0.03 0.02 0.01 0.01 0.01 0.00 0.00 0.00 0.00 0.00 0.00 0.02 0.03 0.01 0.00 0.00 0.00 0.00 0.00 0.01 0.02 0.02 0.01 0.01 0.01 0.00 0.00 0.00 0.01 0.02 0.04 0.04 0.04 0.02 0.02 0.03 0.03 0.05 0.06 0.06 0.04 0.03 0.05
0.06 0.04 0.02 0.01 0.00 0.00 0.00 0.00 0.00 0.00 0.00 0.02 0.04 0.04 0.01 0.00 0.00 0.00 0.00 0.00 0.01 0.01 0.01 0.02 0.02 0.01 0.00 0.00 0.00 0.00 0.01 0.03 0.03 0.03 0.03 0.03 0.02 0.02 0.05 0.07 0.07 0.06 0.07
0.05 0.03 0.01 0.00 0.00 0.00 0.00 0.00 0.00 0.01 0.01 0.01 0.06 0.10 0.05 0.01 0.00 0.00 0.00 0.00 0.01 0.01 0.02 0.03 0.02 0.02 0.01 0.00 0.00 0.00 0.00 0.00 0.01 0.02 0.02 0.02 0.01 0.01 0.04 0.07 0.08 0.09 0.10
0.02 0.01 0.00 0.00 0.00 0.00 0.00 0.00 0.00 0.01 0.02 0.01 0.03 0.06 0.10 0.09 0.06 0.02 0.01 0.02 0.02 0.02 0.03 0.03 0.03 0.03 0.02 0.02 0.01 0.01 0.01 0.00 0.00 0.00 0.01 0.01 0.01 0.01 0.02 0.06 0.12 0.15 0.14
0.01 0.00 0.00 0.00 0.00 0.00 0.00 0.00 0.01 0.02 0.03 0.03 0.04 0.07 0.12 0.17 0.17 0.13 0.06 0.05 0.05 0.03 0.04 0.03 0.02 0.03 0.02 0.02 0.02 0.02 0.02 0.00 0.00 0.00 0.00 0.00 0.00 0.00 0.01 0.06 0.15 0.21 0.20
0.00 0.00 0.00 0.00 0.00 0.00 0.00 0.00 0.01 0.02 0.04 0.06 0.09 0.12 0.14 0.14 0.14 0.15 0.10 0.07 0.05 0.03 0.02 0.01 0.02 0.02 0.02 0.03 0.03 0.04 0.03 0.01 0.00 0.00 0.00 0.00 0.00 0.00 0.01 0.05 0.14 0.23 0.24
0.00 0.00 0.00 0.00 0.00 0.00 0.00 0.00 0.00 0.02 0.04 0.07 0.10 0.13 0.15 0.15 0.15 0.15 0.11 0.07 0.05 0.03 0.02 0.01 0.01 0.01 0.01 0.02 0.03 0.03 0.02 0.01 0.00 0.00 0.00 0.00 0.00 0.01 0.01 0.05 0.12 0.20 0.21
0.00 0.00 0.00 0.00 0.00 0.00 0.00 0.00 0.00 0.01 0.03 0.05 0.07 0.08 0.09 0.12 0.15 0.17 0.17 0.15 0.10 0.06 0.04 0.02 0.01 0.01 0.02 0.04 0.06 0.04 0.01 0.00 0.00 0.00 0.00 0.00 0.00 0.01 0.01 0.03 0.10 0.17 0.16
0.00 0.00 0.00 0.00 0.00 0.00 0.00 0.00 0.00 0.01 0.04 0.08 0.10 0.12 0.14 0.13 0.15 0.17 0.18 0.18 0.16 0.13 0.07 0.03 0.02 0.04 0.07 0.09 0.08 0.03 0.01 0.00 0.00 0.00 0.00 0.00 0.00 0.00 0.01 0.02 0.06 0.11 0.13
0.00 0.00 0.00 0.00 0.00 0.00 0.00 0.00 0.00 0.01 0.05 0.09 0.13 0.16 0.18 0.19 0.19 0.18 0.17 0.17 0.17 0.15 0.09 0.04 0.04 0.06 0.08 0.09 0.08 0.05 0.01 0.00 0.00 0.00 0.00 0.00 0.00 0.00 0.01 0.03 0.06 0.09 0.10
0.00 0.00 0.00 0.00 0.00 0.00 0.00 0.00 0.00 0.01 0.02 0.04 0.07 0.10 0.12 0.13 0.13 0.14 0.13 0.13 0.14 0.16 0.11 0.06 0.05 0.05 0.06 0.09 0.12 0.08 0.04 0.02 0.01 0.00 0.00 0.00 0.00 0.00 0.01 0.03 0.07 0.09 0.08
0.00 0.00 0.00 0.00 0.00 0.00 0.00 0.00 0.00 0.00 0.00 0.01 0.02 0.02 0.02 0.03 0.03 0.04 0.05 0.06 0.08 0.10 0.10 0.07 0.05 0.03 0.03 0.07 0.14 0.13 0.06 0.02 0.01 0.00 0.00 0.00 0.00 0.00 0.01 0.03 0.06 0.07 0.07
0.00 0.00 0.00 0.00 0.00 0.00 0.00 0.00 0.00 0.00 0.00 0.00 0.00 0.00 0.00 0.00 0.00 0.00 0.00 0.01 0.01 0.03 0.04 0.05 0.04 0.03 0.02 0.04 0.10 0.11 0.09 0.04 0.01 0.00 0.00 0.01 0.00 0.00 0.00 0.01 0.03 0.04 0.04
0.00 0.00 0.00 0.00 0.00 0.00 0.00 0.00 0.00 0.00 0.00 0.00 0.00 0.00 0.00 0.00 0.00 0.00 0.00 0.00 0.00 0.00 0.01 0.02 0.02 0.02 0.02 0.03 0.06 0.11 0.12 0.08 0.04 0.01 0.00 0.01 0.00 0.00 0.00 0.00 0.01 0.02 0.01
0.00 0.00 0.00 0.00 0.00 0.00 0.00 0.00 0.00 0.00 0.00 0.00 0.00 0.00 0.00 0.00 0.00 0.00 0.00 0.00 0.00 0.00 0.00 0.00 0.01 0.02 0.02 0.04 0.07 0.12 0.17 0.14 0.07 0.03 0.02 0.00 0.00 0.00 0.00 0.00 0.00 0.01 0.01
0.00 0.00 0.00 0.00 0.00 0.00 0.00 0.00 0.00 0.00 0.00 0.00 0.00 0.00 0.00 0.00 0.00 0.00 0.00 0.00 0.00 0.00 0.00 0.00 0.00 0.01 0.01 0.03 0.06 0.12 0.19 0.18 0.12 0.06 0.03 0.02 0.01 0.01 0.00 0.00 0.00 0.00 0.00
0.01 0.00 0.00 0.00 0.00 0.00 0.00 0.00 0.00 0.00 0.00 0.00 0.00 0.00 0.00 0.00 0.00 0.00 0.00 0.00 0.00 0.00 0.00 0.00 0.00 0.00 0.01 0.02 0.04 0.09 0.19 0.27 0.25 0.18 0.10 0.04 0.02 0.02 0.01 0.01 0.01 0.01 0.00
0.01 0.00 0.00 0.00 0.00 0.00 0.00 0.00 0.00 0.00 0.00 0.00 0.00 0.00 0.00 0.00 0.00 0.00 0.00 0.00 0.00 0.00 0.00 0.00 0.00 0.00 0.00 0.01 0.02 0.04 0.09 0.20 0.32 0.37 0.28 0.18 0.09 0.04 0.02 0.01 0.01 0.01 0.01
0.00 0.00 0.00 0.00 0.00 0.00 0.00 0.00 0.00 0.00 0.00 0.00 0.00 0.00 0.00 0.00 0.00 0.00 0.00 0.00 0.00 0.00 0.00 0.00 0.00 0.00 0.00 0.00 0.00 0.01 0.02 0.04 0.10 0.20 0.28 0.29 0.21 0.12 0.06 0.03 0.02 0.01 0.01
0.00 0.00 0.00 0.00 0.00 0.00 0.00 0.00 0.00 0.00 0.00 0.00 0.00 0.00 0.00 0.00 0.00 0.00 0.00 0.00 0.00 0.00 0.00 0.00 0.00 0.00 0.00 0.00 0.00 0.00 0.00 0.00 0.01 0.02 0.05 0.08 0.11 0.10 0.08 0.06 0.03 0.02 0.01
MSLP
1015.61 1015.64 1015.59 1015.48 1015.36 1015.26 1015.20 1015.19 1015.22 1015.26 1015.30 1015.30 1015.25 1015.16 1015.03 1014.88 1014.73 1014.59 1014.47 1014.37 1014.29 1014.23 1014.19 1014.16 1014.17 1014.20 1014.28 1014.39 1014.53 1014.69 1014.85 1015.00 1015.15 1015.27 1015.40 1015.55 1015.72 1015.94 1016.22 1016.54 1016.90 1017.28 1017.67
1015.25 1015.28 1015.23 1015.14 1015.04 1014.95 1014.91 1014.91 1014.95 1015.01 1015.05 1015.06 1015.02 1014.92 1014.76 1014.58 1014.38 1014.19 1014.02 1013.88 1013.79 1013.73 1013.70 1013.71 1013.75 1013.83 1013.93 1014.06 1014.20 1014.34 1014.48 1014.60 1014.72 1014.82 1014.93 1015.06 1015.22 1015.43 1015.70 1016.02 1016.39 1016.80 1017.22
1014.78 1014.83 1014.81 1014.76 1014.70 1014.65 1014.64 1014.67 1014.73 1014.80 1014.85 1014.86 1014.80 1014.68 1014.50 1014.27 1014.03 1013.78 1013.57 1013.40 1013.28 1013.21 1013.20 1013.23 1013.31 1013.41 1013.54 1013.69 1013.83 1013.97 1014.09 1014.20 1014.29 1014.37 1014.46 1014.57 1014.71 1014.90 1015.15 1015.47 1015.84 1016.26 1016.72
1014.27 1014.34 1014.37 1014.37 1014.37 1014.38 1014.41 1014.47 1014.55 1014.62 1014.67 1014.65 1014.57 1014.42 1014.20 1013.94 1013.64 1013.36 1013.10 1012.89 1012.75 1012.67 1012.66 1012.70 1012.80 1012.93 1013.08 1013.23 1013.39 1013.53 1013.65 1013.75 1013.83 1013.90 1013.97 1014.06 1014.18 1014.35 1014.58 1014.88 1015.26 1015.69 1016.18
1013.77 1013.87 1013.94 1014.01 1014.07 1014.14 1014.22 1014.30 1014.39 1014.44 1014.46 1014.42 1014.30 1014.11 1013.86 1013.55 1013.23 1012.90 1012.61 1012.37 1012.20 1012.10 1012.08 1012.12 1012.21 1012.35 1012.51 1012.68 1012.85 1013.00 1013.13 1013.24 1013.32 1013.38 1013.44 1013.51 1013.62 1013.76 1013.98 1014.26 1014.63 1015.08 1015.60
1013.35 1013.47 1013.59 1013.70 1013.82 1013.94 1014.05 1014.14 1014.21 1014.24 1014.22 1014.13 1013.97 1013.75 1013.46 1013.13 1012.79 1012.45 1012.14 1011.87 1011.67 1011.55 1011.49 1011.51 1011.58 1011.70 1011.86 1012.03 1012.21 1012.38 1012.53 1012.65 1012.74 1012.81 1012.87 1012.93 1013.01 1013.14 1013.33 1013.60 1013.97 1014.43 1014.98
1013.06 1013.18 1013.32 1013.48 1013.63 1013.77 1013.89 1013.98 1014.02 1014.00 1013.93 1013.80 1013.60 1013.35 1013.05 1012.72 1012.37 1012.03 1011.72 1011.44 1011.21 1011.05 1010.95 1010.92 1010.95 1011.04 1011.17 1011.34 1011.52 1011.70 1011.87 1012.01 1012.12 1012.20 1012.26 1012.30 1012.36 1012.47 1012.64 1012.90 1013.27 1013.75 1014.33
1012.90 1013.02 1013.17 1013.34 1013.50 1013.64 1013.75 1013.80 1013.80 1013.73 1013.61 1013.44 1013.22 1012.95 1012.66 1012.36 1012.03 1011.71 1011.40 1011.12 1010.86 1010.66 1010.50 1010.40 1010.38 1010.41 1010.51 1010.65 1010.83 1011.02 1011.21 1011.37 1011.49 1011.57 1011.62 1011.65 1011.68 1011.76 1011.91 1012.16 1012.53 1013.03 1013.65
1012.88 1012.98 1013.11 1013.26 1013.41 1013.53 1013.60 1013.61 1013.55 1013.44 1013.27 1013.07 1012.85 1012.60 1012.34 1012.08 1011.80 1011.52 1011.24 1010.95 1010.68 1010.42 1010.20 1010.03 1009.93 1009.90 1009.94 1010.05 1010.21 1010.40 1010.59 1010.76 1010.89 1010.96 1010.99 1010.99 1010.99 1011.03 1011.15 1011.39 1011.76 1012.29 1012.95
1012.95 1013.02 1013.12 1013.24 1013.35 1013.42 1013.44 1013.39 1013.29 1013.13 1012.94 1012.73 1012.51 1012.31 1012.11 1011.91 1011.70 1011.47 1011.22 1010.95 1010.65 1010.35 1010.06 1009.81 1009.63 1009.53 1009.51 1009.58 1009.71 1009.88 1010.07 1010.23 1010.35 1010.40 1010.40 1010.36 1010.32 1010.32 1010.40 1010.62 1010.99 1011.54 1012.24
1013.05 1013.09 1013.16 1013.23 1013.28 1013.30 1013.26 1013.16 1013.01 1012.82 1012.61 1012.41 1012.23 1012.08 1011.95 1011.82 1011.69 1011.53 1011.32 1011.06 1010.75 1010.41 1010.07 1009.75 1009.49 1009.31 1009.24 1009.25 1009.35 1009.50 1009.67 1009.81 1009.90 1009.92 1009.88 1009.79 1009.69 1009.64 1009.69 1009.88 1010.26 1010.82 1011.56
1013.13 1013.15 1013.18 1013.21 1013.21 1013.16 1013.06 1012.91 1012.72 1012.51 1012.30 1012.12 1011.99 1011.90 1011.84 1011.80 1011.74 1011.64 1011.48 1011.24 1010.92 1010.56 1010.17 1009.79 1009.47 1009.23 1009.10 1009.07 1009.13 1009.24 1009.38 1009.49 1009.55 1009.53 1009.44 1009.29 1009.15 1009.05 1009.06 1009.24 1009.61 1010.19 1010.96
1013.17 1013.18 1013.19 1013.17 1013.12 1013.02 1012.87 1012.68 1012.46 1012.23 1012.03 1011.88 1011.78 1011.75 1011.76 1011.78 1011.79 1011.75 1011.63 1011.41 1011.10 1010.72 1010.31 1009.89 1009.53 1009.25 1009.07 1009.00 1009.01 1009.09 1009.19 1009.27 1009.28 1009.22 1009.09 1008.90 1008.72 1008.59 1008.57 1008.73 1009.10 1009.69 1010.47
1013.16 1013.18 1013.17 1013.13 1013.04 1012.90 1012.71 1012.48 1012.24 1012.01 1011.82 1011.68 1011.62 1011.63 1011.69 1011.76 1011.82 1011.81 1011.72 1011.53 1011.23 1010.86 1010.43 1010.00 1009.62 1009.30 1009.09 1008.99 1008.97 1009.01 1009.07 1009.11 1009.09 1009.00 1008.84 1008.63 1008.43 1008.29 1008.27 1008.42 1008.79 1009.37 1010.15
1013.12 1013.16 1013.15 1013.09 1012.99 1012.82 1012.61 1012.37 1012.11 1011.88 1011.69 1011.57 1011.52 1011.55 1011.63 1011.73 1011.80 1011.82 1011.75 1011.58 1011.30 1010.94 1010.52 1010.10 1009.70 1009.38 1009.15 1009.01 1008.96 1008.96 1008.99 1009.00 1008.95 1008.85 1008.68 1008.48 1008.29 1008.17 1008.16 1008.33 1008.70 1009.28 1010.05
1013.08 1013.15 1013.16 1013.11 1012.99 1012.83 1012.61 1012.36 1012.11 1011.87 1011.69 1011.57 1011.52 1011.54 1011.62 1011.71 1011.78 1011.80 1011.74 1011.58 1011.32 1010.98 1010.58 1010.17 1009.79 1009.46 1009.21 1009.05 1008.97 1008.94 1008.93 1008.91 1008.86 1008.76 1008.61 1008.45 1008.30 1008.22 1008.26 1008.46 1008.84 1009.41 1010.15
1013.08 1013.17 1013.21 1013.18 1013.09 1012.93 1012.73 1012.50 1012.25 1012.03 1011.84 1011.71 1011.65 1011.65 1011.69 1011.75 1011.80 1011.80 1011.72 1011.57 1011.32 1011.00 1010.63 1010.25 1009.88 1009.55 1009.30 1009.11 1008.99 1008.93 1008.89 1008.85 1008.80 1008.72 1008.62 1008.51 1008.44 1008.44 1008.54 1008.78 1009.18 1009.74 1010.44
1013.12 1013.25 1013.32 1013.32 1013.26 1013.14 1012.97 1012.77 1012.55 1012.34 1012.16 1012.02 1011.93 1011.89 1011.88 1011.89 1011.89 1011.86 1011.76 1011.60 1011.36 1011.06 1010.72 1010.36 1010.00 1009.68 1009.41 1009.20 1009.05 1008.94 1008.87 1008.82 1008.77 1008.72 1008.68 1008.65 1008.66 1008.74 1008.92 1009.22 1009.64 1010.18 1010.83
1013.21 1013.37 1013.47 1013.52 1013.51 1013.44 1013.32 1013.16 1012.98 1012.79 1012.61 1012.46 1012.35 1012.26 1012.20 1012.15 1012.10 1012.01 1011.89 1011.71 1011.48 1011.20 1010.87 1010.53 1010.19 1009.86 1009.58 1009.34 1009.15 1009.00 1008.90 1008.83 1008.79 1008.77 1008.78 1008.82 1008.92 1009.08 1009.33 1009.67 1010.10 1010.62 1011.21
1013.34 1013.53 1013.67 1013.76 1013.79 1013.78 1013.72 1013.62 1013.48 1013.33 1013.17 1013.01 1012.87 1012.74 1012.63 1012.52 1012.41 1012.27 1012.11 1011.92 1011.68 1011.41 1011.10 1010.77 1010.44 1010.11 1009.81 1009.54 1009.31 1009.12 1008.98 1008.89 1008.84 1008.84 1008.89 1008.99 1009.16 1009.38 1009.68 1010.05 1010.48 1010.97 1011.50
1013.49 1013.70 1013.87 1014.00 1014.10 1014.14 1014.14 1014.10 1014.01 1013.90 1013.76 1013.61 1013.45 1013.29 1013.12 1012.96 1012.79 1012.61 1012.41 1012.19 1011.95 1011.68 1011.39 1011.07 1010.75 1010.42 1010.10 1009.80 1009.53 1009.30 1009.12 1009.00 1008.94 1008.94 1009.01 1009.14 1009.34 1009.60 1009.91 1010.28 1010.69 1011.13 1011.59
1013.66 1013.88 1014.08 1014.25 1014.39 1014.49 1014.54 1014.55 1014.52 1014.44 1014.33 1014.19 1014.02 1013.83 1013.63 1013.42 1013.20 1012.98 1012.75 1012.51 1012.26 1011.99 1011.71 1011.41 1011.09 1010.76 1010.43 1010.11 1009.81 1009.55 1009.33 1009.18 1009.09 1009.07 1009.13 1009.26 1009.45 1009.70 1010.00 1010.33 1010.69 1011.07 1011.45
1013.84 1014.07 1014.29 1014.49 1014.66 1014.80 1014.90 1014.95 1014.96 1014.92 1014.83 1014.70 1014.53 1014.32 1014.10 1013.86 1013.61 1013.35 1013.09 1012.84 1012.58 1012.31 1012.04 1011.75 1011.44 1011.12 1010.79 1010.46 1010.14 1009.85 1009.61 1009.41 1009.29 1009.24 1009.26 1009.35 1009.50 1009.71 1009.95 1010.22 1010.51 1010.81 1011.11
1014.04 1014.28 1014.51 1014.73 1014.92 1015.08 1015.21 1015.29 1015.32 1015.31 1015.24 1015.12 1014.95 1014.75 1014.51 1014.25 1013.97 1013.69 1013.42 1013.15 1012.88 1012.62 1012.35 1012.08 1011.79 1011.48 1011.17 1010.84 1010.52 1010.21 1009.94 1009.72 1009.55 1009.45 1009.42 1009.45 1009.53 1009.66 1009.83 1010.01 1010.21 1010.42 1010.64
1014.27 1014.52 1014.76 1014.98 1015.17 1015.34 1015.48 1015.57 1015.62 1015.62 1015.57 1015.46 1015.30 1015.10 1014.86 1014.59 1014.30 1014.01 1013.73 1013.45 1013.18 1012.92 1012.66 1012.40 1012.13 1011.85 1011.55 1011.24 1010.92 1010.62 1010.33 1010.08 1009.87 1009.72 1009.63 1009.59 1009.59 1009.63 1009.70 1009.79 1009.89 1010.01 1010.15
1014.52 1014.78 1015.02 1015.24 1015.43 1015.59 1015.72 1015.82 1015.87 1015.88 1015.84 1015.75 1015.60 1015.41 1015.18 1014.91 1014.63 1014.33 1014.04 1013.75 1013.49 1013.23 1012.98 1012.74 1012.49 1012.23 1011.95 1011.66 1011.36 1011.06 1010.77 1010.50 1010.26 1010.06 1009.90 1009.79 1009.71 1009.66 1009.64 1009.64 1009.66 1009.69 1009.75
Thickness
5768 5767 5766 5765 5764 5763 5762 5761 5760 5759 5757 5755 5754 5752 5751 5751 5752 5752 5753 5754 5755 5755 5755 5754 5753 5752 5751 5749 5746 5744 5742 5739 5738 5736 5734 5732 5730 5728 5725 5721 5717 5714 5710
5768 5766 5765 5764 5763 5762 5761 5760 5759 5758 5756 5755 5754 5753 5752 5752 5752 5752 5753 5753 5754 5754 5755 5755 5754 5752 5750 5748 5746 5744 5742 5740 5738 5736 5735 5733 5731 5729 5727 5723 5718 5714 5711
5767 5766 5764 5762 5762 5760 5759 5758 5757 5756 5754 5753 5752 5753 5753 5752 5751 5751 5751 5751 5752 5753 5754 5754 5753 5752 5750 5747 5746 5744 5742 5740 5738 5736 5734 5733 5731 5729 5727 5724 5720 5715 5711
5766 5764 5762 5761 5761 5758 5756 5755 5754 5752 5751 5750 5750 5751 5752 5751 5750 5750 5750 5750 5751 5751 5752 5753 5752 5751 5749 5747 5745 5744 5742 5740 5737 5736 5734 5733 5732 5730 5728 5725 5721 5716 5711
5763 5761 5759 5758 5757 5755 5753 5751 5750 5748 5747 5747 5747 5748 5749 5749 5750 5749 5749 5750 5750 5750 5750 5751 5750 5749 5748 5747 5745 5743 5742 5740 5738 5735 5734 5733 5732 5731 5728 5725 5722 5717 5711
5758 5757 5755 5753 5751 5749 5747 5745 5744 5743 5742 5741 5743 5744 5746 5747 5748 5748 5748 5749 5749 5749 5749 5748 5747 5747 5747 5746 5744 5743 5741 5740 5738 5736 5734 5733 5732 5731 5729 5727 5723 5718 5712
5750 5750 5748 5746 5744 5741 5740 5738 5736 5736 5736 5735 5733 5736 5742 5744 5745 5746 5747 5747 5748 5748 5747 5746 5745 5744 5744 5744 5743 5742 5740 5739 5738 5736 5735 5733 5732 5732 5730 5728 5724 5720 5714
5742 5741 5739 5737 5735 5734 5733 5731 5730 5730 5731 5729 5726 5724 5728 5733 5738 5742 5743 5744 5745 5745 5744 5743 5742 5741 5740 5740 5741 5740 5739 5738 5737 5736 5735 5734 5733 5732 5731 5729 5726 5721 5715
5732 5731 5730 5729 5728 5727 5726 5725 5724 5723 5723 5724 5721 5716 5715 5719 5723 5731 5734 5735 5737 5738 5739 5739 5738 5737 5736 5736 5737 5737 5737 5736 5736 5735 5735 5734 5734 5733 5731 5729 5727 5722 5716
5722 5722 5722 5722 5721 5721 5720 5719 5718 5718 5717 5717 5715 5713 5712 5713 5710 5714 5721 5725 5727 5729 5731 5732 5732 5732 5732 5733 5733 5733 5733 5733 5733 5733 5733 5733 5733 5732 5731 5729 5727 5723 5717
5714 5714 5714 5714 5713 5713 5713 5712 5711 5711 5710 5710 5708 5706 5705 5704 5703 5700 5704 5711 5716 5720 5723 5725 5726 5726 5727 5728 5729 5729 5729 5729 5729 5729 5730 5730 5731 5731 5730 5729 5727 5724 5718
5706 5707 5707 5706 5706 5705 5705 5704 5703 5703 5703 5702 5702 5700 5698 5696 5696 5694 5695 5699 5702 5709 5714 5718 5719 5720 5720 5721 5723 5724 5724 5723 5723 5724 5725 5727 5729 5729 5729 5728 5726 5724 5718
5697 5698 5698 5698 5697 5697 5697 5696 5695 5695 5695 5694 5694 5694 5692 5691 5691 5690 5690 5692 5694 5698 5703 5707 5711 5712 5712 5713 5715 5717 5717 5716 5716 5718 5720 5723 5726 5728 5728 5728 5725 5723 5717
5689 5689 5689 5689 5688 5688 5688 5686 5686 5687 5687 5687 5687 5686 5685 5683 5684 5684 5684 5683 5683 5686 5690 5694 5700 5702 5704 5705 5707 5708 5708 5708 5709 5711 5713 5717 5721 5724 5726 5726 5723 5720 5713
5680 5679 5679 5679 5679 5679 5678 5677 5678 5679 5680 5680 5679 5678 5676 5675 5675 5675 5675 5675 5673 5672 5675 5681 5686 5692 5695 5696 5698 5699 5699 5699 5700 5702 5704 5708 5713 5717 5720 5721 5718 5715 5708
5670 5670 5669 5669 5669 5669 5669 5669 5670 5671 5672 5672 5672 5670 5669 5668 5667 5666 5665 5665 5665 5663 5664 5670 5675 5681 5685 5687 5689 5689 5689 5689 5691 5693 5696 5699 5704 5708 5711 5712 5710 5706 5699
5661 5660 5659 5659 5659 5659 5660 5661 5662 5663 5664 5664 5663 5663 5661 5661 5659 5657 5657 5656 5656 5656 5656 5662 5668 5673 5676 5678 5680 5680 5680 5680 5682 5684 5687 5690 5694 5697 5699 5700 5699 5695 5690
5652 5651 5650 5649 5649 5649 5651 5652 5654 5655 5655 5654 5653 5653 5652 5653 5652 5650 5649 5648 5648 5648 5649 5652 5657 5662 5667 5670 5673 5673 5673 5674 5675 5677 5679 5681 5684 5686 5687 5688 5687 5685 5680
5641 5640 5639 5638 5638 5639 5641 5642 5644 5644 5643 5642 5641 5641 5641 5642 5643 5643 5643 5642 5642 5642 5644 5645 5648 5652 5656 5660 5663 5665 5666 5668 5669 5671 5672 5673 5675 5676 5677 5677 5676 5675 5672
5631 5629 5628 5627 5627 5628 5630 5631 5631 5630 5630 5629 5628 5628 5629 5631 5632 5634 5635 5635 5635 5637 5639 5640 5642 5644 5647 5652 5655 5657 5659 5661 5663 5666 5666 5666 5667 5667 5667 5666 5666 5665 5663
5620 5619 5617 5617 5617 5618 5619 5618 5618 5617 5616 5616 5616 5617 5619 5620 5622 5624 5625 5626 5628 5629 5631 5633 5634 5637 5639 5642 5646 5651 5653 5655 5657 5659 5660 5660 5660 5660 5659 5658 5657 5656 5655
5610 5608 5606 5606 5606 5606 5607 5607 5606 5604 5602 5602 5603 5606 5608 5609 5610 5613 5614 5616 5617 5619 5621 5623 5624 5626 5628 5632 5637 5642 5647 5650 5651 5654 5655 5655 5654 5654 5653 5653 5652 5650 5648
5600 5597 5596 5596 5595 5595 5596 5595 5594 5592 5591 5590 5591 5592 5596 5597 5598 5601 5603 5605 5606 5607 5610 5611 5613 5614 5617 5621 5627 5634 5639 5643 5646 5647 5648 5647 5647 5648 5648 5647 5647 5646 5644
5590 5588 5587 5587 5586 5585 5585 5584 5583 5582 5581 5580 5580 5580 5582 5584 5586 5589 5592 5594 5594 5596 5597 5600 5602 5603 5606 5611 5617 5622 5626 5632 5635 5637 5639 5638 5637 5638 5640 5641 5641 5641 5641
5582 5579 5578 5578 5578 5576 5576 5575 5574 5573 5571 5569 5569 5570 5571 5573 5574 5578 5581 5581 5583 5583 5585 5587 5589 5592 5595 5600 5606 5611 5615 5618 5619 5622 5625 5627 5627 5629 5631 5633 5635 5635 5636
5574 5572 5570 5569 5570 5568 5567 5567 5566 5564 5561 5560 5560 5560 5561 5561 5563 5565 5567 5568 5569 5569 5572 5576 5578 5580 5583 5586 5590 5593 5597 5601 5604 5607 5610 5613 5616 5619 5621 5624 5627 5629 5630